When you browse on this site, cookies collect data to enhance your experience and personalize the content and advertising you see.
Visit our Privacy Policy to learn more. By continuing to use the site, you agree to this use of cookies and data.
  • In Austria
  • List of Countries
  • For 7 days
  • Water Temperature
  • Satellite Maps
  • Weather Map
  • News
  • Weather Widgets
  • user-avatar
    Login

    Hourly Weather San Luis

    Today, 25 June, Tuesday

    Time Temperature Precipitation Wind Pressure Humidity
    00:00 +4°C° 0 mm 11 mps 696 mmHg 30%
    01:00 +3°C° 0 mm 10 mps 697 mmHg 31%
    02:00 +3°C° 0 mm 9 mps 698 mmHg 31%
    03:00 +2°C° 0 mm 8 mps 698 mmHg 32%
    04:00 +3°C° 0 mm 7 mps 698 mmHg 34%
    05:00 +2°C° 0 mm 6 mps 699 mmHg 35%
    06:00 +2°C° 0 mm 5 mps 699 mmHg 35%
    07:00 +1°C° 0 mm 5 mps 700 mmHg 35%
    08:00 +1°C° 0 mm 4 mps 700 mmHg 35%
    09:00 +3°C° 0 mm 5 mps 701 mmHg 31%
    10:00 +6°C° 0 mm 5 mps 701 mmHg 26%
    11:00 +7°C° 0 mm 5 mps 702 mmHg 22%
    12:00 +8°C° 0 mm 5 mps 701 mmHg 21%
    13:00 +8°C° 0 mm 4 mps 701 mmHg 21%
    14:00 +10°C° 0 mm 3 mps 700 mmHg 20%
    15:00 +9°C° 0 mm 3 mps 700 mmHg 23%
    16:00 +9°C° 0 mm 2 mps 699 mmHg 25%
    17:00 +8°C° 0 mm 2 mps 699 mmHg 27%
    18:00 +7°C° 0 mm 2 mps 699 mmHg 28%
    19:00 +7°C° 0 mm 3 mps 699 mmHg 28%
    20:00 +5°C° 0 mm 3 mps 699 mmHg 28%
    21:00 +4°C° 0 mm 3 mps 699 mmHg 28%
    22:00 +4°C° 0 mm 3 mps 698 mmHg 27%
    23:00 +4°C° 0 mm 4 mps 698 mmHg 26%

    Tomorrow, 26 June, Wednesday

    Time Temperature Precipitation Wind Pressure Humidity
    00:00 +4°C° 0 mm 3 mps 698 mmHg 26%
    01:00 +3°C° 0 mm 3 mps 697 mmHg 26%
    02:00 +3°C° 0 mm 3 mps 697 mmHg 27%
    03:00 +3°C° 0 mm 3 mps 696 mmHg 26%
    04:00 +3°C° 0 mm 4 mps 696 mmHg 26%
    05:00 +3°C° 0 mm 4 mps 695 mmHg 26%
    06:00 +3°C° 0 mm 5 mps 695 mmHg 27%
    07:00 +3°C° 0 mm 5 mps 695 mmHg 27%
    08:00 +3°C° 0 mm 6 mps 696 mmHg 28%
    09:00 +5°C° 0 mm 7 mps 695 mmHg 26%
    10:00 +7°C° 0 mm 8 mps 695 mmHg 23%
    11:00 +9°C° 0 mm 8 mps 695 mmHg 21%
    12:00 +10°C° 0 mm 8 mps 694 mmHg 21%
    13:00 +11°C° 0 mm 8 mps 694 mmHg 21%
    14:00 +11°C° 0 mm 8 mps 693 mmHg 21%
    15:00 +11°C° 0 mm 7 mps 693 mmHg 23%
    16:00 +10°C° 0 mm 6 mps 692 mmHg 25%
    17:00 +9°C° 0 mm 5 mps 692 mmHg 28%
    18:00 +8°C° 0 mm 5 mps 692 mmHg 29%
    19:00 +7°C° 0 mm 5 mps 692 mmHg 30%
    20:00 +6°C° 0 mm 5 mps 693 mmHg 31%
    21:00 +5°C° 0 mm 6 mps 693 mmHg 31%
    22:00 +5°C° 0 mm 6 mps 693 mmHg 31%
    23:00 +5°C° 0 mm 7 mps 692 mmHg 32%

    Day after tomorrow, 27 June, Thursday

    Time Temperature Precipitation Wind Pressure Humidity
    00:00 +5°C° 0 mm 7 mps 692 mmHg 32%
    01:00 +6°C° 0 mm 7 mps 692 mmHg 32%
    02:00 +6°C° 0 mm 7 mps 692 mmHg 32%
    03:00 +6°C° 0 mm 7 mps 692 mmHg 33%
    04:00 +6°C° 0 mm 7 mps 691 mmHg 34%
    05:00 +6°C° 0 mm 7 mps 691 mmHg 34%
    06:00 +7°C° 0 mm 6 mps 691 mmHg 35%
    07:00 +7°C° 0 mm 5 mps 691 mmHg 37%
    08:00 +6°C° 0 mm 4 mps 691 mmHg 38%
    09:00 +9°C° 0 mm 5 mps 692 mmHg 35%
    10:00 +12°C° 0 mm 5 mps 692 mmHg 32%
    11:00 +14°C° 0 mm 6 mps 692 mmHg 29%
    12:00 +14°C° 0 mm 5 mps 692 mmHg 29%
    13:00 +15°C° 0 mm 5 mps 691 mmHg 29%
    14:00 +16°C° 0 mm 5 mps 690 mmHg 29%
    15:00 +15°C° 0 mm 5 mps 690 mmHg 32%
    16:00 +14°C° 0 mm 4 mps 690 mmHg 35%
    17:00 +13°C° 0 mm 3 mps 689 mmHg 39%
    18:00 +11°C° 0 mm 3 mps 689 mmHg 41%
    19:00 +10°C° 0 mm 3 mps 689 mmHg 44%
    20:00 +9°C° 0 mm 3 mps 690 mmHg 47%
    21:00 +8°C° 0 mm 2 mps 689 mmHg 50%
    22:00 +8°C° 0 mm 2 mps 689 mmHg 52%
    23:00 +8°C° 0 mm 1 mps 689 mmHg 55%

    28 June, Friday

    Time Temperature Precipitation Wind Pressure Humidity
    00:00 +8°C° 0 mm 1 mps 689 mmHg 56%
    01:00 +8°C° 0 mm 1 mps 689 mmHg 58%
    02:00 +7°C° 0 mm 2 mps 689 mmHg 59%
    03:00 +7°C° 0 mm 2 mps 689 mmHg 59%
    04:00 +7°C° 0 mm 2 mps 688 mmHg 60%
    05:00 +6°C° 0 mm 2 mps 688 mmHg 60%
    06:00 +7°C° 0 mm 2 mps 689 mmHg 59%
    07:00 +7°C° 0 mm 2 mps 689 mmHg 59%
    08:00 +7°C° 0 mm 2 mps 690 mmHg 59%
    09:00 +9°C° 0 mm 2 mps 690 mmHg 53%
    10:00 +12°C° 0 mm 2 mps 691 mmHg 48%
    11:00 +14°C° 0 mm 2 mps 691 mmHg 42%
    12:00 +15°C° 0 mm 2 mps 691 mmHg 41%
    13:00 +16°C° 0 mm 2 mps 691 mmHg 40%
    14:00 +16°C° 0 mm 2 mps 690 mmHg 39%
    15:00 +14°C° 0 mm 3 mps 690 mmHg 42%
    16:00 +14°C° 0 mm 4 mps 690 mmHg 45%
    17:00 +13°C° 0 mm 4 mps 690 mmHg 48%
    18:00 +12°C° 0 mm 4 mps 690 mmHg 52%
    19:00 +10°C° 0 mm 4 mps 691 mmHg 56%
    20:00 +8°C° 0 mm 5 mps 691 mmHg 60%
    21:00 +8°C° 0 mm 4 mps 691 mmHg 63%
    22:00 +7°C° 0 mm 4 mps 692 mmHg 67%
    23:00 +7°C° 0 mm 3 mps 692 mmHg 70%

    29 June, Saturday

    Time Temperature Precipitation Wind Pressure Humidity
    00:00 +7°C° 0 mm 3 mps 692 mmHg 74%
    01:00 +7°C° 0 mm 3 mps 692 mmHg 77%
    02:00 +5°C° 0 mm 3 mps 693 mmHg 81%
    03:00 +5°C° 0 mm 3 mps 693 mmHg 85%
    04:00 +4°C° 0 mm 3 mps 693 mmHg 88%
    05:00 +4°C° 0 mm 3 mps 693 mmHg 92%
    06:00 +4°C° 0 mm 3 mps 694 mmHg 92%
    07:00 +4°C° 0 mm 3 mps 694 mmHg 92%
    08:00 +4°C° 0 mm 3 mps 695 mmHg 92%
    09:00 +5°C° 0 mm 3 mps 696 mmHg 84%
    10:00 +8°C° 0 mm 3 mps 696 mmHg 76%
    11:00 +9°C° 0 mm 2 mps 697 mmHg 68%
    12:00 +10°C° 0 mm 3 mps 696 mmHg 63%
    13:00 +11°C° 0 mm 3 mps 696 mmHg 57%
    14:00 +12°C° 0 mm 4 mps 696 mmHg 52%
    15:00 +11°C° 0 mm 4 mps 696 mmHg 55%
    16:00 +11°C° 0 mm 4 mps 696 mmHg 59%
    17:00 +10°C° 0 mm 4 mps 696 mmHg 62%
    18:00 +8°C° 0 mm 4 mps 697 mmHg 67%
    19:00 +7°C° 0 mm 4 mps 697 mmHg 72%
    20:00 +6°C° 0 mm 4 mps 697 mmHg 77%
    21:00 +7°C° 0 mm 3 mps 697 mmHg 71%
    22:00 +7°C° 0 mm 3 mps 698 mmHg 66%
    23:00 +7°C° 0 mm 2 mps 698 mmHg 60%

    30 June, Sunday

    Time Temperature Precipitation Wind Pressure Humidity
    00:00 +5°C° 0 mm 3 mps 698 mmHg 63%
    01:00 +5°C° 0 mm 3 mps 698 mmHg 66%
    02:00 +5°C° 0 mm 4 mps 698 mmHg 70%
    03:00 +4°C° 0 mm 4 mps 698 mmHg 73%
    04:00 +4°C° 0 mm 4 mps 698 mmHg 76%
    05:00 +4°C° 0 mm 4 mps 698 mmHg 79%
    06:00 +4°C° 0 mm 4 mps 698 mmHg 78%
    07:00 +3°C° 0 mm 5 mps 699 mmHg 76%
    08:00 +3°C° 0 mm 5 mps 699 mmHg 74%
    09:00 +6°C° 0 mm 5 mps 699 mmHg 64%
    10:00 +8°C° 0 mm 5 mps 699 mmHg 54%
    11:00 +10°C° 0 mm 5 mps 699 mmHg 43%
    12:00 +12°C° 0 mm 4 mps 699 mmHg 41%
    13:00 +13°C° 0 mm 4 mps 698 mmHg 38%
    14:00 +14°C° 0 mm 3 mps 698 mmHg 35%
    15:00 +13°C° 0 mm 3 mps 697 mmHg 38%
    16:00 +12°C° 0 mm 3 mps 697 mmHg 41%
    17:00 +12°C° 0 mm 3 mps 697 mmHg 44%
    18:00 +11°C° 0 mm 3 mps 697 mmHg 48%
    19:00 +10°C° 0 mm 3 mps 697 mmHg 51%
    20:00 +9°C° 0 mm 3 mps 697 mmHg 54%
    21:00 +9°C° 0 mm 3 mps 697 mmHg 56%
    22:00 +8°C° 0 mm 2 mps 697 mmHg 59%
    23:00 +8°C° 0 mm 2 mps 697 mmHg 61%
    Show more